Regional Weather Roundup
Issued by NWS

Home | Current Version | Previous Version | Graphics & Text | Print | Product List | Glossary Off
Versions: 1 2 3 4 5 6 7 8 9 10 11 12 13 14 15 16 17 18 19 20 21 22 23 24 25 26 27 28 29 30 31 32 33 34 35 36 37 38 39 40 41 42 43 44 45 46 47 48 49

000
ASUS43 KDMX 242307
RWRIA

WEATHER ROUNDUP FOR IOWA
NATIONAL WEATHER SERVICE DES MOINES IA
500 PM CST MON NOV 24 2014

NOTE: "FAIR" INDICATES FEW OR NO CLOUDS BELOW 12,000 FEET WITH NO
SIGNIFICANT WEATHER AND/OR OBSTRUCTIONS TO VISIBILITY.

* - THESE STATIONS ARE NOT NWS STATIONS...THUS NOT UNDER NWS
QUALITY CONTROL.  THEY ALSO DO NOT REPORT WEATHER SUCH
AS PRECIPITATION OR FOG.

IAZ001>003-012>014-020>022-031>034-043>046-250000-
   NORTHWEST IOWA

CITY           SKY/WX    TMP DP  RH WIND       PRES   REMARKS
CARROLL *      CLOUDY    25  16  68 NW22G35   29.82R WCI  10
CHEROKEE *     CLOUDY    23  16  74 NW15G26   29.84R WCI  10
DENISON *      CLOUDY    27  14  59 NW21G32   29.83R WCI  13
LE MARS *      CLOUDY    27  16  63 NW22G33   29.88R WCI  12
ORANGE CITY *  CLOUDY    25  14  63 NW22G31   29.84R WCI  10
SHELDON *      CLOUDY    21  14  73 NW29G40   29.82R WCI   3
SIOUX CITY     CLEAR     29  15  56 NW26      29.87R WCI  14
SPENCER        CLOUDY    22  12  65 NW23G36   29.79R WCI   6
STORM LAKE *   CLOUDY    23  14  68 NW29      29.80R WCI   6
$$

IAZ055>058-069>071-079>083-090>094-250000-
   SOUTHWEST IOWA

CITY           SKY/WX    TMP DP  RH WIND       PRES   REMARKS
ATLANTIC *     CLEAR     28  19  69 NW10      29.84R WCI  19
AUDUBON *      CLOUDY    28  16  59 NW14G22   29.83R WCI  17
CLARINDA *     CLEAR     34  21  60 NW10G17   29.88R WCI  26
COUNCIL BLFS * CLEAR     32  16  51 NW22G31   29.86R WCI  19
CRESTON *      CLOUDY    28  21  74 NW18      29.82R WCI  16
HARLAN  *      CLEAR     30  18  59 NW21G26   29.88R WCI  17
LAMONI         CLOUDY    30  20  66 W18G28    29.83R WCI  18
RED OAK *      CLEAR     34  18  51 NW20G28   29.86R WCI  22
SHENANDOAH *   CLEAR     34  19  55 NW13G18   29.89R WCI  25
$$

IAZ047>049-059>061-072>074-084-250000-
   CENTRAL IOWA

CITY           SKY/WX    TMP DP  RH WIND       PRES   REMARKS
AMES           CLOUDY    26  17  68 NW14G30   29.78R WCI  14
ANKENY *       CLOUDY    27  19  74 W18G26    29.79R WCI  13
CHARITON *     CLOUDY    28  19  69 W22G29    29.80R WCI  15
DES MOINES     CLOUDY    28  18  66 NW21G32   29.80R WCI  15
GRINNELL*      CLOUDY    27  19  74 W18       29.77R WCI  13
KNOXVILLE *    CLOUDY    28  19  69 W21       29.78R WCI  15
MARSHALLTOWN   CLOUDY    25  18  74 W22G31    29.73R WCI  10
PELLA *        CLOUDY    28  19  69 W14G25    29.80R WCI  17
PERRY *        CLOUDY    27  19  74 NW18G32   29.81R WCI  13
$$

IAZ004>006-015-016-023>025-035-036-250000-
   NORTH CENTRAL IOWA

CITY           SKY/WX    TMP DP  RH WIND       PRES   REMARKS
ALGONA *       CLOUDY    21  14  73 NW20G28   29.76R WCI   6
CLARION *      MIX PCPN  23  16  74 NW21G30   29.74R WCI   8
ESTHERVILLE    CLOUDY    19  11  70 NW23G38   29.76R WCI   2
FORT DODGE *   CLOUDY    21  12  68 NW20G26   29.79R WCI   6
MASON CITY     CLOUDY    17  11  77 NW30G38   29.71R WCI  -3
FOREST CITY *  LGT SNOW  19  14  79 NW25G37   29.71R WCI   2
IOWA FALLS *   CLOUDY    25  18  74 W31G38    29.74R WCI   8
$$

IAZ007>011-017>019-026>030-037>042-050>054-066-250000-
   NORTHEAST IOWA

CITY           SKY/WX    TMP DP  RH WIND       PRES   REMARKS
CEDAR RAPIDS   LGT SNOW  24  22  91 W20       29.70R FOG     WCI  10
CHARLES CITY * FLURRIES  19  14  79 NW24G32   29.68R WCI   2
CLINTON *      CLOUDY    25  19  80 W25       29.70R WCI   9
DECORAH *      CLOUDY    19  14  79 NW15G25   29.62R WCI   5
DUBUQUE        CLOUDY    21  17  84 W23G32    29.63R WCI   5
MONTICELLO *   MIX PCPN  23  19  86 W21G30    29.67R WCI   8
OELWEIN *      CLOUDY    21  16  79 W22G29    29.67R WCI   5
WATERLOO       MIX PCPN  22  16  78 W15G22    29.70R WCI   9
$$

IAZ064-065-067-068-078-250000-
   EAST CENTRAL IOWA

CITY           SKY/WX    TMP DP  RH WIND       PRES   REMARKS
DAVENPORT      CLOUDY    25  20  81 W24G32    29.70R HAZE    WCI   9
IOWA CITY      LGT SNOW  25  22  88 W16G28    29.75R FOG     WCI  12
MT. PLEASANT * CLOUDY    27  23  86 W13G20    29.78R WCI  16
MUSCATINE *    LGT SNOW  27  23  86 W22G29    29.75R WCI  12
QUAD CITIES    CLOUDY    27  21  78 W22G32    29.71R WCI  13
$$

IAZ062-063-075>077-085>089-095>099-250000-
   SOUTHEAST IOWA

CITY           SKY/WX    TMP DP  RH WIND       PRES   REMARKS
BURLINGTON     CLOUDY    28  24  85 W13       29.77R WCI  17
FAIRFIELD *    CLOUDY    28  21  74 W16G23    29.77R WCI  17
FORT MADISON * FLURRIES  30  27  86 W9        29.79R WCI  22
KEOKUK *       MIX PCPN  30  25  80 W17       29.79R WCI  18
OSKALOOSA *    CLOUDY    27  21  80 W22G28    29.78R WCI  12
CENTERVILLE *  CLOUDY    28  23  80 W14       29.82R WCI  17
OTTUMWA        CLOUDY    27  19  72 W20G26    29.77R WCI  13
WASHINGTON *   CLOUDY    28  25  86 W17G26    29.76R WCI  16
$$

ABBREVIATIONS USED IN REMARKS
   TC - TEMPERATURES IN CELSIUS
  WCI - WIND CHILL INDEX
   HX - HEAT INDEX
  VSB - VISIBILITY
$$




USA.gov is the U.S. government's official web portal to all federal, state and local government web resources and services.